KALMAR current weather conditions

sailwx.info

Wind from 250 at 7 knots

Air temperature -1.0° C
Visibility: greater than 5.4 NM
Dewpoint -2.0° C

Last reported at 2015-Jan-28 04:20 UTC.
Time now 2015-Jan-28 06:42 UTC

Location: N 56°44' E 016°18'.
View on Google Maps.

See reports from other nearby stations

  
Tides and Currents Weather Stations Pressure Air Temp Water Temp Dewpoint Dewpoint Depression Visibility Wind Speed Wind Dir Waves Ship Positions
date/time (UTC)wind fromknots sea level pressurealtimeterstation pressurevisibilityair tempwater tempwave heightnotes
2015-Jan-28 04:20 250 7 5.4-1.0
2015-Jan-28 03:50 250 7 5.4-1.0
2015-Jan-28 03:20 220 6 5.4-1.0
2015-Jan-28 02:50 220 7 5.4-1.0
2015-Jan-28 02:20 240 6 5.4-1.0
2015-Jan-28 01:50 250 6 5.4-1.0
2015-Jan-28 01:20 250 6 5.4-1.0
2015-Jan-28 00:50 260 6 5.4-1.0
2015-Jan-28 00:20 250 7 5.4-1.0
2015-Jan-27 23:50 240 6 5.4-0.0
2015-Jan-27 23:20 270 8 5.4-0.0
2015-Jan-27 22:50 250 7 5.4-0.0
2015-Jan-27 22:20 280 4 5.4-0.0
2015-Jan-27 21:50 280 5 5.4 1.0
2015-Jan-27 21:20 310 6 5.4 1.0
2015-Jan-27 20:50 310 4 5.4 1.0
2015-Jan-27 20:20 330 7 5.4 1.0
2015-Jan-27 19:50 310 4 5.4 1.0
2015-Jan-27 19:20 330 3 5.4 1.0
2015-Jan-27 18:50 340 4 5.4-0.0
2015-Jan-27 18:20 310 5 5.4-0.0
2015-Jan-27 17:50 320 5 5.4-0.0
2015-Jan-27 17:20 330 6 5.4 1.0
2015-Jan-27 16:50 340 9 5.4 1.0
2015-Jan-27 16:20 340 6 5.4 1.0
2015-Jan-27 15:50 340 9 5.4 2.0
2015-Jan-27 15:20 340 9 5.4 2.0
2015-Jan-27 14:50 340 8 5.4 2.0
2015-Jan-27 14:20 330 8 5.4 2.0
2015-Jan-27 13:50 340 7 5.4 2.0
2015-Jan-27 13:20 350 7 5.4 2.0
2015-Jan-27 12:50 350 7 5.4 2.0
2015-Jan-27 12:20 350 8 5.4 2.0
2015-Jan-27 11:50 340 9 5.4 2.0
2015-Jan-27 11:20 350 8 5.4 2.0
2015-Jan-27 10:50 350 9 5.4 2.0
2015-Jan-27 10:20 360 7 5.4 1.0 Light drizzle.
2015-Jan-27 09:50 350 6 5.4 1.0
2015-Jan-27 09:20 340 7 5.4 1.0 Light drizzle.
2015-Jan-27 08:20 330 3 5.4 1.0
2015-Jan-27 07:50 360 3 4.9 1.0 Mist.
2015-Jan-27 07:20 330 3 3.8 1.0 Mist.
2015-Jan-27 06:50 330 3 3.2 1.0 Rain snow.
2015-Jan-27 06:20 360 3 2.2 1.0 Drizzle.
2015-Jan-27 05:50 360 3 1.6 1.0 Drizzle.
2015-Jan-27 05:20 360 2 1.6 1.0 Drizzle.
2015-Jan-27 04:20 310 2 1.4 1.0 Light drizzle.
2015-Jan-27 03:50 2.7 1.0 Drizzle.
2015-Jan-27 03:20 190 2 3.8 2.0 Light rain.
2015-Jan-27 02:50 150 2 3.2 1.0 Light rain.
2015-Jan-27 02:20 160 3 3.2 2.0 Light rain.
2015-Jan-27 01:50 170 3 3.8 2.0 Light rain.
2015-Jan-27 01:20 180 4 3.8 2.0 Drizzle.
2015-Jan-27 00:50 190 5 3.8 2.0 Light rain.
2015-Jan-27 00:20 180 5 4.3 2.0 Light ice pellets.
2015-Jan-26 23:50 180 7 4.9 2.0 Light ice pellets.
2015-Jan-26 23:20 180 6 5.4 2.0 Drizzle.
2015-Jan-26 22:50 180 8 5.4 2.0 Light drizzle.
2015-Jan-26 22:20 180 9 5.4 2.0 Light rain.
2015-Jan-26 21:50 180 11 5.4 2.0 Light ice pellets.
2015-Jan-26 21:20 180 10 5.4 2.0 Light rain.
2015-Jan-26 20:50 180 11 5.4 2.0 Light drizzle.
2015-Jan-26 20:20 180 14 5.4 2.0
2015-Jan-26 19:50 180 14 5.4 3.0
2015-Jan-26 19:20 180 14 3.8 3.0 Mist.
2015-Jan-26 18:50 180 14 3.2 2.0 Light drizzle.
2015-Jan-26 18:20 180 13 2.6 3.0 Light drizzle.
2015-Jan-26 17:50 190 14 5.4 3.0
2015-Jan-26 17:20 180 14 5.4 3.0
2015-Jan-26 16:50 180 14 5.4 3.0
2015-Jan-26 16:20 180 14 4.9 3.0
2015-Jan-26 15:50 180 15 3.2 3.0 Mist.
2015-Jan-26 15:20 180 14 3.8 3.0 Mist.
2015-Jan-26 14:50 180 14 5.4 3.0
2015-Jan-26 14:20 180 13 5.4 3.0
2015-Jan-26 13:50 180 12 5.4 2.0
2015-Jan-26 13:20 180 11 5.4 2.0
2015-Jan-26 12:50 190 9 5.4 3.0
2015-Jan-26 12:20 190 11 5.4 3.0
2015-Jan-26 11:50 200 10 5.4 3.0
2015-Jan-26 11:20 200 9 5.4 3.0
2015-Jan-26 10:50 180 12 5.4 3.0
2015-Jan-26 10:20 180 9 5.4 2.0
2015-Jan-26 09:50 170 8 2.0
2015-Jan-26 09:20 190 6 5.4 2.0
2015-Jan-26 08:50 190 6 5.4 1.0
2015-Jan-26 08:20 200 7 5.4 1.0
2015-Jan-26 07:50 190 7 5.4-0.0
2015-Jan-26 07:20 180 8 5.4-0.0
2015-Jan-26 06:50 180 6 5.4-0.0
2015-Jan-26 06:20 190 5 5.4-0.0